Willimantic, CT

11:17 AM EDT on April 24, 2017 (GMT -0400)
Windham

Weather History for KIJD - August, 2012

Change the Weather History Date:

Sunday, August 19, 2012

  Actual Average Record
Temperature  
Mean Temperature 64 °F -  
Max Temperature 75 °F 79 °F 92 °F (1987)
Min Temperature 53 °F 54 °F 38 °F (1953)
Degree Days  
Heating Degree Days 1    
Growing Degree Days 14 (Base 50)    
Moisture  
Dew Point 54 °F    
Average Humidity 75    
Maximum Humidity 94    
Minimum Humidity 43    
Precipitation  
Precipitation 0.01 in - - ()
Sea Level Pressure  
Sea Level Pressure 29.95 in    
Wind  
Wind Speed 1 mph (NNW)    
Max Wind Speed 8 mph    
Max Gust Speed -    
Visibility 10 miles    
Events      
Averages and records for this station are not official NWS values.
T = Trace of Precipitation, MM = Missing Value Source: NWS Daily Summary

Daily Weather History Graph

Daily Weather History Graph

Search for Another Location

Airport or City:

Trip Planner

Search our weather history database for the weather conditions in past years. The results will help you decide how hot, cold, wet, or windy it might be!

Date:

Astronomy

Aug. 19, 2012 Rise Set
Actual Time 6:01 AM EDT 7:41 PM EDT
Civil Twilight 5:32 AM EDT 8:11 PM EDT
Nautical Twilight 4:56 AM EDT 8:47 PM EDT
Astronomical Twilight 4:17 AM EDT 9:25 PM EDT
Moon 8:15 AM EDT (8/19) 8:25 PM EDT (8/19)
Length of Visible Light 14h 39m
Length of Day
13h 40m
Waxing Crescent, 5% of the Moon is Illuminated
Aug 19
Waxing Crescent
Aug 24
First Quarter
Aug 31
Full
Sep 8
Last Quarter
Sep 15
New

Hourly Weather History & Observations

Time (EDT) Temp. Dew Point Humidity Pressure Visibility Wind Dir Wind Speed Gust Speed Precip Events Conditions
12:52 AM 57.9 °F 55.0 °F 90% 29.93 in 10.0 mi Calm Calm - N/A   Clear
12:59 AM 57.2 °F 55.4 °F 94% 29.93 in 10.0 mi Calm Calm - N/A   Partly Cloudy
1:52 AM 57.0 °F 54.0 °F 89% 29.92 in 10.0 mi Calm Calm - N/A   Scattered Clouds
2:52 AM 55.9 °F 53.1 °F 90% 29.94 in 10.0 mi Calm Calm - N/A   Clear
3:20 AM 55.4 °F 53.6 °F 94% 29.94 in 10.0 mi Calm Calm - N/A   Partly Cloudy
3:52 AM 55.9 °F 52.0 °F 87% 29.94 in 10.0 mi Calm Calm - N/A   Mostly Cloudy
4:52 AM 55.0 °F 52.0 °F 89% 29.94 in 10.0 mi Calm Calm - N/A   Overcast
5:23 AM 53.6 °F 51.8 °F 94% 29.96 in 10.0 mi Calm Calm - N/A   Scattered Clouds
5:52 AM 53.1 °F 50.0 °F 89% 29.96 in 7.0 mi Calm Calm - N/A   Partly Cloudy
6:12 AM 53.6 °F 51.8 °F 94% 29.96 in 4.0 mi Calm Calm - N/A   Mostly Cloudy
6:27 AM 53.6 °F 50.0 °F 88% 29.97 in 10.0 mi Calm Calm - N/A   Scattered Clouds
6:52 AM 55.0 °F 51.1 °F 86% 29.97 in 10.0 mi Calm Calm - N/A   Clear
7:52 AM 59.0 °F 53.1 °F 81% 29.98 in 10.0 mi Calm Calm - 0.01 in   Clear
8:52 AM 64.0 °F 55.9 °F 75% 29.97 in 10.0 mi Calm Calm - N/A   Clear
10:52 AM 73.0 °F 53.1 °F 49% 29.97 in 10.0 mi North 3.5 mph - N/A   Clear
11:52 AM 73.9 °F 50.0 °F 43% 29.96 in 10.0 mi NNW 6.9 mph - N/A   Clear
12:52 PM 73.9 °F 51.1 °F 45% 29.96 in 10.0 mi West 5.8 mph - N/A   Clear
1:52 PM 73.9 °F 51.1 °F 45% 29.97 in 10.0 mi NW 8.1 mph - N/A   Clear
2:52 PM 75.0 °F 51.1 °F 43% 29.96 in 10.0 mi NNW 8.1 mph - N/A   Clear
3:52 PM 73.9 °F 51.1 °F 45% 29.94 in 10.0 mi NNW 5.8 mph - N/A   Clear
4:52 PM 72.0 °F 53.1 °F 51% 29.93 in 10.0 mi NW 3.5 mph - N/A   Clear
5:52 PM 72.0 °F 52.0 °F 49% 29.93 in 10.0 mi Calm Calm - N/A   Clear
6:52 PM 68.0 °F 57.0 °F 68% 29.93 in 10.0 mi Calm Calm - N/A   Clear
7:52 PM 66.9 °F 59.0 °F 76% 29.94 in 10.0 mi Calm Calm - N/A   Clear
8:52 PM 64.0 °F 59.0 °F 84% 29.94 in 10.0 mi NNE 3.5 mph - N/A   Clear
9:52 PM 63.0 °F 59.0 °F 87% 29.94 in 10.0 mi Calm Calm - N/A   Clear
10:52 PM 63.0 °F 59.0 °F 87% 29.95 in 10.0 mi Calm Calm - N/A   Clear
11:52 PM 62.1 °F 59.0 °F 90% 29.94 in 10.0 mi Calm Calm - N/A   Clear